Total_Precipitation_Accumulation
0.07 0.08 0.10 0.14 0.18 0.18 0.16 0.26 0.27 0.15 0.24 0.47 0.40 0.23 0.04 0.01 0.02 0.06 0.16 0.16 0.08 0.05 0.00 0.01 0.04 0.09 0.02 0.00 0.00 0.00 0.00 0.00 0.01 0.01 0.00 0.01 0.03 0.05 0.19 0.43 0.22 0.11 0.16 0.13
0.08 0.08 0.12 0.16 0.17 0.17 0.22 0.36 0.19 0.27 0.54 0.40 0.26 0.16 0.03 0.01 0.01 0.02 0.14 0.13 0.08 0.05 0.01 0.00 0.05 0.08 0.03 0.00 0.00 0.00 0.00 0.01 0.01 0.07 0.05 0.05 0.05 0.09 0.20 0.21 0.34 0.40 0.31 0.10
0.08 0.09 0.16 0.17 0.12 0.16 0.30 0.51 0.37 0.33 0.74 0.53 0.14 0.14 0.06 0.02 0.00 0.00 0.05 0.13 0.10 0.02 0.02 0.01 0.02 0.04 0.01 0.00 0.00 0.00 0.00 0.02 0.04 0.13 0.34 0.40 0.21 0.16 0.16 0.29 0.37 0.16 0.16 0.11
0.07 0.07 0.17 0.19 0.12 0.20 0.35 0.53 0.37 0.26 0.37 0.38 0.23 0.19 0.21 0.13 0.08 0.04 0.05 0.21 0.06 0.01 0.02 0.01 0.00 0.00 0.00 0.00 0.00 0.00 0.00 0.00 0.00 0.03 0.12 0.21 0.25 0.23 0.23 0.29 0.20 0.24 0.04 0.05
0.11 0.09 0.09 0.14 0.14 0.26 0.34 0.43 0.19 0.14 0.14 0.18 0.36 0.35 0.21 0.10 0.11 0.11 0.05 0.04 0.01 0.00 0.00 0.00 0.00 0.00 0.00 0.00 0.00 0.00 0.00 0.00 0.00 0.00 0.00 0.01 0.01 0.05 0.13 0.19 0.27 0.27 0.13 0.10
0.23 0.17 0.12 0.11 0.10 0.22 0.29 0.21 0.14 0.25 0.17 0.07 0.29 0.44 0.28 0.20 0.14 0.09 0.01 0.01 0.03 0.02 0.01 0.00 0.00 0.00 0.00 0.00 0.00 0.00 0.00 0.01 0.00 0.00 0.00 0.00 0.00 0.00 0.00 0.02 0.04 0.11 0.10 0.06
0.23 0.29 0.28 0.23 0.18 0.11 0.14 0.11 0.09 0.23 0.19 0.13 0.07 0.05 0.09 0.11 0.07 0.11 0.05 0.04 0.05 0.03 0.00 0.01 0.01 0.00 0.00 0.00 0.00 0.00 0.00 0.01 0.02 0.01 0.01 0.01 0.00 0.01 0.00 0.08 0.15 0.05 0.05 0.05
0.23 0.31 0.33 0.27 0.23 0.17 0.12 0.14 0.16 0.14 0.13 0.09 0.06 0.04 0.06 0.10 0.11 0.08 0.07 0.05 0.07 0.11 0.07 0.09 0.05 0.02 0.02 0.00 0.00 0.00 0.00 0.02 0.05 0.03 0.00 0.00 0.00 0.00 0.00 0.03 0.05 0.03 0.09 0.23
0.15 0.21 0.30 0.37 0.33 0.26 0.23 0.14 0.16 0.26 0.27 0.08 0.01 0.03 0.05 0.08 0.14 0.18 0.10 0.13 0.18 0.17 0.25 0.22 0.12 0.08 0.06 0.05 0.02 0.00 0.00 0.01 0.05 0.08 0.06 0.00 0.00 0.00 0.00 0.00 0.03 0.01 0.07 0.37
0.13 0.19 0.27 0.35 0.37 0.39 0.35 0.25 0.16 0.36 0.38 0.06 0.04 0.02 0.04 0.06 0.13 0.23 0.17 0.23 0.30 0.32 0.25 0.19 0.08 0.07 0.06 0.12 0.15 0.05 0.02 0.04 0.06 0.05 0.08 0.02 0.00 0.00 0.01 0.05 0.04 0.00 0.01 0.12
0.12 0.17 0.24 0.40 0.50 0.49 0.59 0.42 0.15 0.22 0.28 0.08 0.03 0.04 0.07 0.07 0.16 0.31 0.26 0.49 0.36 0.37 0.24 0.14 0.09 0.10 0.10 0.06 0.14 0.14 0.10 0.10 0.08 0.07 0.11 0.04 0.00 0.05 0.14 0.12 0.01 0.00 0.01 0.02
0.13 0.16 0.18 0.27 0.52 0.71 0.94 0.88 0.24 0.20 0.28 0.19 0.08 0.03 0.02 0.05 0.13 0.35 0.43 0.30 0.37 0.24 0.30 0.20 0.14 0.15 0.12 0.08 0.10 0.21 0.25 0.06 0.08 0.03 0.03 0.09 0.13 0.08 0.08 0.02 0.01 0.01 0.02 0.05
0.13 0.17 0.20 0.23 0.34 0.67 1.36 1.14 0.24 0.70 0.79 0.32 0.13 0.06 0.00 0.01 0.04 0.13 0.25 0.28 0.41 0.50 0.47 0.47 0.31 0.16 0.09 0.10 0.12 0.27 0.55 0.46 0.36 0.37 0.31 0.20 0.37 0.25 0.06 0.05 0.13 0.13 0.07 0.03
0.16 0.23 0.24 0.21 0.30 0.55 1.27 1.39 0.40 0.52 0.57 0.27 0.08 0.02 0.06 0.03 0.02 0.04 0.06 0.10 0.16 0.26 0.43 0.35 0.23 0.13 0.07 0.08 0.14 0.26 0.27 0.55 0.67 0.75 0.62 0.45 0.60 0.58 0.38 0.26 0.09 0.10 0.14 0.11
0.20 0.29 0.33 0.28 0.35 0.74 1.24 0.93 0.32 0.19 0.21 0.25 0.05 0.01 0.00 0.04 0.06 0.06 0.08 0.13 0.17 0.26 0.32 0.29 0.19 0.13 0.15 0.12 0.29 0.30 0.16 0.41 0.73 1.14 0.88 0.69 0.66 0.36 0.25 0.22 0.18 0.08 0.03 0.01
0.23 0.35 0.40 0.37 0.59 1.07 1.82 2.41 1.33 0.25 0.34 0.46 0.23 0.05 0.01 0.00 0.01 0.03 0.04 0.14 0.29 0.37 0.33 0.20 0.17 0.17 0.50 0.49 0.46 0.29 0.14 0.14 0.26 0.51 0.81 0.73 0.52 0.29 0.13 0.07 0.02 0.00 0.00 0.00
0.35 0.50 0.49 0.55 0.74 0.69 0.58 0.65 0.48 0.21 0.44 0.64 0.32 0.12 0.06 0.02 0.04 0.09 0.16 0.30 0.41 0.31 0.33 0.15 0.12 0.18 0.35 0.51 0.49 0.36 0.24 0.21 0.26 0.29 0.32 0.18 0.11 0.07 0.02 0.00 0.00 0.00 0.00 0.01
0.53 0.62 0.54 0.72 0.92 0.78 0.46 0.10 0.01 0.16 0.63 0.37 0.16 0.23 0.38 0.12 0.12 0.25 0.33 0.56 0.58 0.58 0.44 0.18 0.09 0.24 0.33 0.38 0.13 0.03 0.08 0.10 0.12 0.12 0.06 0.04 0.01 0.00 0.00 0.00 0.00 0.00 0.02 0.04
0.90 0.96 1.44 2.09 1.78 1.42 0.60 0.19 0.13 0.21 0.35 0.18 0.07 0.17 0.69 0.29 0.26 0.20 0.39 0.35 0.59 0.50 0.29 0.16 0.26 0.27 0.37 0.25 0.03 0.01 0.01 0.01 0.01 0.00 0.00 0.00 0.00 0.01 0.01 0.01 0.01 0.01 0.02 0.02
1.04 1.40 2.00 2.42 1.21 0.38 0.58 0.98 0.84 0.72 0.37 0.15 0.07 0.18 0.57 0.49 0.31 0.20 0.34 0.30 0.27 0.36 0.22 0.20 0.31 0.21 0.15 0.05 0.01 0.00 0.00 0.00 0.00 0.00 0.01 0.01 0.04 0.05 0.04 0.05 0.07 0.08 0.08 0.06
0.86 1.17 1.15 1.06 0.49 0.36 0.55 0.69 0.46 0.32 0.26 0.13 0.20 0.21 0.28 0.53 0.31 0.16 0.22 0.26 0.25 0.19 0.18 0.34 0.33 0.13 0.10 0.02 0.00 0.00 0.00 0.00 0.00 0.01 0.02 0.03 0.04 0.05 0.06 0.06 0.06 0.07 0.09 0.13
0.35 0.54 0.94 0.81 0.52 0.57 0.43 0.27 0.19 0.12 0.14 0.11 0.15 0.21 0.21 0.56 0.47 0.29 0.23 0.27 0.28 0.24 0.31 0.35 0.17 0.14 0.04 0.00 0.00 0.00 0.00 0.00 0.01 0.01 0.02 0.02 0.04 0.05 0.05 0.06 0.08 0.10 0.11 0.14
0.03 0.06 0.26 0.27 0.33 0.27 0.13 0.09 0.11 0.07 0.06 0.06 0.08 0.16 0.20 0.32 0.45 0.41 0.11 0.16 0.25 0.12 0.24 0.20 0.10 0.08 0.02 0.01 0.01 0.01 0.01 0.01 0.01 0.02 0.02 0.03 0.04 0.04 0.05 0.06 0.08 0.08 0.10 0.14
0.02 0.05 0.06 0.06 0.04 0.04 0.06 0.06 0.04 0.04 0.04 0.04 0.05 0.04 0.09 0.14 0.19 0.21 0.03 0.05 0.07 0.16 0.08 0.07 0.10 0.06 0.05 0.04 0.04 0.03 0.04 0.04 0.04 0.05 0.05 0.06 0.06 0.07 0.08 0.09 0.10 0.07 0.11 0.16
0.00 0.00 0.01 0.03 0.07 0.10 0.10 0.05 0.04 0.05 0.05 0.04 0.04 0.02 0.04 0.02 0.01 0.00 0.02 0.03 0.04 0.04 0.07 0.08 0.07 0.06 0.06 0.07 0.07 0.06 0.06 0.06 0.07 0.08 0.08 0.09 0.10 0.08 0.11 0.14 0.13 0.11 0.13 0.14
0.00 0.03 0.07 0.10 0.09 0.12 0.09 0.09 0.09 0.10 0.08 0.02 0.02 0.01 0.03 0.03 0.01 0.01 0.02 0.03 0.03 0.07 0.06 0.06 0.04 0.04 0.05 0.06 0.07 0.09 0.09 0.09 0.09 0.10 0.10 0.10 0.11 0.12 0.14 0.15 0.14 0.15 0.14 0.14
0.01 0.04 0.06 0.06 0.05 0.09 0.10 0.09 0.08 0.06 0.05 0.03 0.03 0.03 0.03 0.04 0.02 0.03 0.04 0.06 0.07 0.07 0.08 0.08 0.08 0.08 0.09 0.09 0.09 0.09 0.10 0.10 0.11 0.11 0.12 0.12 0.13 0.13 0.11 0.11 0.16 0.14 0.14 0.13